Wind_Speed
11 11 11 11 13 15 17 19 21 22 23 23 22 22 22 18 17 15 7 6 6 7 8 9 9 11 8 9 6 13 11 11 9 10 13 9 12 9 6 5 7 7 4 4 4 2 1
10 10 10 11 13 15 17 20 21 22 22 23 22 21 22 21 23 12 7 7 7 8 10 11 9 7 7 6 7 12 11 10 9 8 11 12 5 6 5 7 6 4 2 5 3 2 1
10 10 10 11 13 15 18 21 23 22 21 21 21 19 20 20 20 12 9 9 8 8 8 10 11 12 13 6 8 14 12 10 10 8 6 9 9 6 5 4 1 3 4 6 10 7 1
9 8 9 11 14 16 19 21 24 23 21 21 20 18 18 19 16 10 9 10 11 13 12 8 8 8 5 8 10 13 12 5 9 7 6 6 6 5 4 1 4 4 4 3 7 8 4
7 8 11 14 17 19 20 23 24 23 22 21 19 17 17 16 15 10 10 11 11 8 8 7 8 5 4 9 13 15 14 8 7 7 7 5 3 0 2 4 3 4 5 9 1 11 6
7 10 13 16 19 21 22 23 24 23 22 20 18 17 15 12 13 8 10 13 11 6 4 4 8 3 8 5 14 19 13 8 5 5 4 3 3 0 6 6 4 8 6 8 7 4 4
5 11 14 16 19 22 23 23 23 22 20 17 16 15 13 8 11 3 7 3 3 4 16 8 5 4 4 5 8 19 14 8 7 3 4 4 5 6 7 6 6 6 8 9 6 5 2
9 12 15 18 20 23 24 23 22 20 18 16 16 16 13 7 12 8 5 2 2 8 7 7 9 7 6 6 5 18 13 5 6 5 8 0 5 4 5 5 6 9 8 7 3 3 8
10 13 17 19 22 25 25 23 21 19 17 16 16 15 14 8 6 8 6 6 10 7 1 3 5 6 6 5 3 13 16 5 4 6 7 4 3 4 5 6 8 8 6 7 7 12 9
11 14 16 19 23 25 25 22 20 17 16 16 16 16 14 9 4 10 8 3 5 2 3 4 3 5 6 3 2 12 14 5 1 4 6 3 3 4 7 3 6 4 5 7 8 7 4
12 14 17 19 23 26 24 22 19 16 15 15 16 16 13 10 6 10 8 2 6 2 2 3 3 5 6 4 7 7 10 4 4 5 3 1 3 4 6 3 4 7 9 9 3 4 6
13 14 18 20 24 26 24 21 18 15 15 16 17 15 11 11 9 11 6 5 5 2 3 2 2 5 3 7 2 9 6 7 3 3 5 1 2 1 4 7 6 10 10 9 5 1 1
14 16 19 22 25 27 24 20 16 15 16 16 17 14 10 12 11 9 2 3 2 4 3 2 3 4 6 4 2 5 2 6 5 6 5 5 4 4 2 6 2 8 7 4 4 2 4
17 16 21 22 23 26 24 19 16 15 15 16 16 12 10 14 12 7 2 0 3 1 4 2 2 6 2 5 2 5 6 3 8 6 4 4 4 3 3 3 3 5 3 2 4 3 6
18 18 19 21 22 24 23 18 15 14 14 15 15 11 9 17 10 6 3 4 2 4 2 5 3 4 3 3 2 4 4 3 4 7 5 6 3 3 3 1 2 3 2 1 4 6 2
18 19 21 21 24 22 21 17 14 13 14 14 14 9 6 13 7 4 1 3 2 2 2 2 3 1 3 6 5 6 2 2 3 4 6 2 6 2 3 2 2 2 2 1 2 4 5
20 19 19 23 21 20 19 15 14 12 12 12 11 5 5 10 6 4 3 3 3 2 1 3 3 3 2 3 3 4 1 3 0 3 3 1 2 5 1 5 2 2 2 3 1 2 3
21 19 20 20 18 19 18 14 13 12 10 9 5 3 7 6 2 2 2 3 1 2 1 1 2 2 3 4 4 2 2 2 5 0 2 2 3 4 7 5 5 3 3 3 1 3 3
22 21 22 19 20 19 17 13 12 12 11 11 4 4 4 3 2 3 2 3 1 3 3 1 1 0 3 2 3 4 3 4 4 2 3 3 2 4 1 1 3 2 4 5 6 3 5
24 24 23 22 21 19 17 13 10 9 8 8 3 2 1 4 3 3 2 2 3 2 2 2 1 0 1 4 7 4 2 3 4 4 2 3 4 6 7 6 8 8 12 8 9 5 6
25 25 25 23 20 19 17 13 11 9 6 4 2 0 1 1 2 2 0 2 3 3 3 4 3 6 4 4 5 6 6 3 10 10 6 3 5 9 13 12 12 17 21 17 14 18 11
24 25 25 23 21 20 17 14 12 9 7 5 2 2 1 1 1 3 3 5 5 3 4 4 5 3 7 5 6 10 8 5 5 6 4 4 4 2 5 13 15 13 20 20 16 18 17
23 23 23 21 20 19 17 16 14 12 10 5 7 7 3 6 5 3 5 5 6 5 8 8 6 5 7 8 11 13 15 14 15 7 5 5 2 0 9 2 5 10 11 4 6 6 6
22 22 21 20 19 19 18 17 15 14 14 13 9 6 4 3 8 5 4 7 8 14 3 5 7 6 4 8 16 19 25 26 22 19 17 5 4 1 5 4 4 6 3 1 3 6 6
23 21 20 20 19 18 18 18 18 17 17 17 15 8 4 4 10 10 13 8 8 11 9 10 13 9 8 8 3 5 4 3 0 7 4 2 5 3 3 5 11 13 2 2 2 2 6
24 22 21 19 20 20 20 20 19 18 18 19 19 15 8 5 4 14 5 13 5 5 7 11 8 10 5 3 1 3 4 1 3 1 3 2 2 4 3 5 5 1 1 2 2 3 13
27 24 22 20 20 21 21 21 21 20 19 20 21 18 16 7 17 9 6 6 7 5 2 3 5 5 8 3 3 4 5 4 4 4 5 3 2 9 10 7 8 2 4 1 0 2 13
30 28 25 22 22 23 22 21 22 21 21 21 23 22 19 11 22 14 17 11 7 9 3 4 3 5 4 3 3 4 3 3 2 4 6 7 6 5 4 5 8 3 0 1 2 10 13
27 29 28 26 24 24 23 23 24 24 24 22 24 26 22 25 17 13 20 28 22 19 12 14 7 7 11 4 1 1 3 2 2 5 1 4 7 3 8 4 3 3 4 2 5 7 10
Wind_Direction
82 74 62 49 36 26 20 15 10 7 8 9 8 8 9 7 2 352 6 31 54 68 87 98 101 107 89 70 36 359 8 19 27 35 30 24 35 358 40 42 7 81 98 81 92 89 55
79 69 54 38 26 20 13 8 4 2 3 5 6 7 8 6 0 18 55 68 74 84 98 99 99 71 53 77 16 5 14 17 23 41 27 47 40 21 58 32 23 7 117 122 180 185 214
74 59 43 27 19 10 8 4 0 1 2 3 4 7 8 8 15 50 67 75 82 94 106 95 93 86 67 64 23 15 5 11 23 30 38 48 55 51 326 128 29 154 208 192 198 203 274
68 48 28 15 6 0 2 3 2 1 3 3 5 8 10 13 23 46 67 78 93 97 101 87 73 71 74 31 24 359 11 23 357 27 29 29 44 53 57 162 207 247 217 268 128 185 149
55 31 14 4 358 360 360 358 359 1 3 4 4 9 12 18 23 57 91 89 97 98 87 62 57 55 52 19 12 4 7 10 16 8 17 19 54 7 230 251 232 229 347 354 120 181 146
36 17 8 2 3 2 359 357 358 0 2 4 9 12 13 23 29 82 93 93 86 84 66 38 51 96 24 357 17 9 2 19 17 4 324 346 283 262 25 15 19 331 342 326 305 125 214
23 8 2 358 359 358 356 355 356 359 1 7 10 11 16 27 29 134 130 101 75 73 69 67 50 77 10 354 9 1 9 11 329 288 19 10 49 30 4 7 339 301 288 286 354 94 324
1 357 359 359 358 356 353 352 354 357 1 8 13 13 17 23 26 28 231 253 157 135 86 64 58 41 30 21 10 357 17 29 344 22 339 184 72 27 326 269 280 297 310 1 331 352 304
355 357 360 1 358 354 352 351 353 357 1 6 8 9 8 17 32 30 59 113 135 135 118 51 50 31 16 37 31 358 7 352 7 18 355 49 52 313 291 314 357 332 31 345 302 318 271
359 1 360 356 355 353 350 351 352 356 1 3 2 3 6 14 40 18 32 172 162 176 183 22 39 4 0 2 212 1 8 14 197 16 340 59 127 325 309 357 14 301 33 333 316 347 308
352 355 354 354 354 353 352 352 353 355 357 358 358 0 8 30 28 16 359 112 173 155 44 30 18 350 3 51 333 358 2 19 41 331 326 322 15 351 318 24 350 268 332 283 253 299 305
341 345 348 349 353 353 350 352 353 351 351 353 354 358 15 16 13 5 19 118 137 53 296 58 343 351 336 44 46 350 359 359 325 288 215 176 117 298 336 301 254 279 295 291 155 205 314
322 333 343 342 346 349 348 348 348 349 348 351 353 355 7 10 356 357 48 126 36 76 194 53 339 345 308 4 2 6 24 47 29 3 6 315 134 114 308 318 167 345 342 347 359 335 242
319 329 331 331 339 342 344 344 341 345 346 349 349 349 358 2 0 6 120 264 58 123 47 171 258 283 5 358 119 324 343 81 49 346 280 351 332 30 5 54 300 299 349 88 305 325 291
307 316 322 324 330 338 339 338 336 340 344 345 345 342 349 360 1 7 70 58 34 31 352 344 243 279 146 159 239 309 88 50 50 12 21 357 295 160 90 15 18 346 41 23 274 268 242
295 302 310 316 321 330 334 331 329 335 340 341 345 341 357 354 2 6 48 101 111 62 331 242 344 322 320 8 337 7 42 89 116 22 348 17 299 24 135 195 227 264 345 317 271 301 299
282 291 301 313 316 322 327 324 323 330 338 341 344 351 336 347 4 14 54 65 104 95 36 331 357 300 334 345 330 313 15 113 142 131 311 344 194 291 217 202 188 184 239 215 272 269 270
276 283 296 308 309 317 319 315 316 321 330 336 354 299 330 347 14 8 73 28 57 132 264 245 285 317 326 347 297 286 299 60 118 67 292 63 304 282 255 60 58 25 306 318 267 303 259
276 282 290 296 301 309 309 303 307 317 329 342 346 282 330 352 341 101 134 114 258 188 213 201 259 295 45 294 304 222 322 129 161 266 335 121 230 302 262 82 25 237 185 237 298 326 230
271 276 281 286 293 298 299 291 291 302 317 330 346 301 346 35 63 342 166 165 180 222 275 243 310 165 236 246 218 277 261 132 174 215 190 122 241 217 247 287 327 290 282 266 263 254 240
271 272 276 282 282 290 287 279 278 284 292 311 298 228 250 341 103 69 7 45 203 201 221 215 221 235 223 274 267 231 237 225 203 198 181 203 251 239 260 277 276 271 278 273 245 250 250
272 268 268 272 276 278 275 267 262 261 264 246 243 247 240 174 212 251 142 211 217 156 199 194 229 295 214 234 256 300 315 312 260 167 203 158 261 3 272 263 257 270 266 270 247 252 254
275 273 268 266 268 267 262 258 256 252 245 227 251 242 225 177 179 189 205 204 206 163 226 239 232 276 258 260 287 290 286 278 262 264 213 161 234 180 284 360 352 280 259 195 195 209 211
270 270 270 265 260 260 257 250 249 246 240 231 239 213 229 240 198 208 211 214 196 202 238 194 208 231 244 288 297 289 269 257 251 248 243 176 171 155 285 319 237 245 344 279 236 273 294
259 263 265 266 261 254 251 248 247 244 239 236 241 221 247 267 210 240 229 214 227 242 240 250 257 250 254 311 289 300 273 218 42 47 26 318 143 231 249 230 286 277 120 32 18 14 30
258 261 261 260 261 257 252 249 247 244 242 242 241 232 238 299 242 254 220 223 221 220 233 208 217 238 237 226 206 259 253 31 241 98 45 24 302 184 207 255 264 121 70 66 130 248 20
258 262 261 258 257 256 254 252 248 244 241 242 246 239 231 255 259 261 215 203 195 220 254 135 172 165 175 201 225 220 246 207 244 219 177 158 176 223 233 252 277 76 162 156 256 279 354
255 258 259 256 255 255 251 251 251 245 242 241 248 241 232 241 257 249 242 232 212 215 204 158 98 202 167 208 209 233 234 222 286 240 171 175 183 194 207 231 255 138 288 188 349 323 332
251 251 254 254 254 256 255 250 246 245 244 240 240 249 242 241 254 265 257 239 239 247 255 211 200 160 195 191 219 223 241 236 247 267 212 252 190 201 196 213 124 274 191 193 326 321 318
Height
1575 1575 1575 1574 1572 1571 1569 1567 1564 1560 1557 1553 1549 1546 1542 1539 1536 1532 1531 1530 1530 1530 1531 1532 1533 1535 1535 1537 1541 1538 1535 1533 1531 1530 1528 1527 1527 1526 1526 1527 1527 1528 1530 1532 1533 1534 1534
1578 1577 1577 1576 1574 1573 1571 1568 1565 1561 1557 1554 1550 1546 1542 1539 1535 1531 1531 1531 1532 1532 1533 1535 1536 1536 1537 1540 1540 1538 1535 1534 1532 1531 1530 1528 1529 1529 1529 1530 1530 1531 1531 1532 1534 1535 1536
1580 1579 1579 1577 1576 1574 1571 1568 1565 1561 1558 1554 1550 1547 1543 1540 1536 1534 1533 1533 1534 1535 1536 1537 1537 1538 1538 1543 1540 1538 1536 1534 1533 1533 1531 1530 1529 1529 1529 1530 1531 1530 1532 1531 1531 1533 1534
1581 1581 1580 1578 1577 1574 1572 1568 1565 1561 1557 1554 1551 1547 1544 1541 1538 1537 1536 1536 1536 1537 1538 1539 1539 1539 1541 1541 1540 1539 1537 1536 1534 1533 1532 1531 1531 1531 1531 1532 1530 1530 1528 1529 1527 1530 1533
1583 1583 1581 1579 1577 1574 1572 1568 1564 1560 1556 1553 1551 1548 1546 1543 1540 1538 1538 1538 1538 1539 1540 1540 1540 1540 1543 1543 1541 1540 1537 1536 1534 1533 1533 1532 1531 1531 1531 1529 1530 1529 1536 1531 1527 1528 1531
1584 1583 1581 1579 1577 1574 1571 1568 1564 1560 1557 1554 1551 1549 1547 1545 1543 1541 1541 1541 1541 1541 1541 1541 1541 1545 1545 1545 1543 1540 1538 1536 1535 1534 1534 1532 1531 1531 1532 1534 1548 1544 1541 1535 1530 1529 1528
1585 1583 1581 1580 1577 1575 1571 1567 1564 1560 1557 1554 1551 1549 1547 1545 1544 1543 1542 1542 1545 1545 1543 1545 1546 1546 1546 1545 1544 1542 1538 1537 1535 1534 1535 1534 1539 1545 1542 1540 1540 1539 1538 1534 1526 1527 1529
1585 1584 1582 1580 1578 1575 1572 1568 1564 1561 1558 1555 1552 1549 1547 1546 1545 1543 1542 1542 1543 1546 1548 1547 1547 1546 1546 1545 1545 1543 1539 1539 1536 1537 1534 1537 1545 1542 1540 1538 1538 1536 1534 1535 1527 1525 1527
1586 1584 1582 1580 1578 1575 1571 1567 1564 1561 1558 1555 1552 1550 1548 1546 1545 1544 1542 1543 1544 1545 1547 1550 1548 1548 1548 1547 1546 1544 1542 1540 1540 1538 1539 1539 1543 1540 1539 1537 1539 1537 1539 1541 1541 1530 1520
1586 1584 1583 1581 1578 1575 1571 1568 1564 1561 1559 1556 1553 1551 1548 1546 1547 1544 1543 1544 1544 1546 1548 1553 1551 1550 1550 1547 1547 1545 1543 1544 1540 1542 1541 1541 1541 1541 1540 1538 1542 1542 1534 1537 1537 1540 1541
1586 1585 1583 1581 1578 1575 1572 1568 1565 1562 1559 1557 1554 1551 1549 1547 1546 1545 1545 1543 1544 1546 1564 1554 1553 1551 1549 1549 1549 1547 1545 1543 1544 1543 1544 1544 1542 1543 1542 1543 1543 1540 1533 1534 1533 1539 1538
1585 1584 1583 1581 1578 1575 1571 1568 1565 1563 1560 1558 1555 1552 1550 1548 1547 1546 1544 1543 1546 1552 1580 1555 1554 1552 1549 1549 1549 1548 1546 1545 1545 1543 1541 1541 1543 1544 1544 1541 1540 1538 1533 1523 1528 1536 1547
1585 1583 1582 1581 1578 1575 1571 1568 1565 1563 1560 1558 1555 1553 1551 1549 1548 1545 1544 1546 1550 1560 1555 1558 1557 1554 1553 1552 1549 1548 1548 1550 1553 1555 1549 1540 1542 1544 1544 1542 1539 1540 1539 1545 1547 1548 1539
1584 1583 1581 1580 1577 1575 1572 1568 1565 1563 1560 1558 1555 1553 1552 1549 1547 1545 1545 1548 1555 1556 1556 1558 1556 1554 1554 1554 1551 1549 1547 1550 1552 1552 1554 1556 1559 1544 1545 1547 1549 1545 1544 1555 1556 1547 1542
1583 1582 1580 1578 1576 1574 1571 1568 1565 1563 1560 1558 1555 1553 1552 1549 1547 1546 1546 1555 1562 1558 1560 1559 1555 1554 1552 1552 1553 1548 1551 1555 1558 1557 1561 1559 1548 1544 1544 1545 1548 1543 1547 1546 1549 1539 1544
1580 1579 1578 1576 1575 1573 1570 1567 1565 1562 1559 1557 1555 1552 1552 1551 1548 1547 1547 1556 1557 1559 1559 1559 1557 1556 1555 1553 1553 1550 1550 1556 1558 1559 1558 1557 1564 1542 1543 1544 1545 1546 1546 1551 1554 1549 1542
1577 1577 1576 1574 1573 1571 1568 1566 1564 1561 1559 1557 1555 1553 1553 1551 1550 1549 1554 1558 1559 1561 1561 1561 1558 1557 1554 1557 1556 1553 1552 1557 1557 1558 1558 1557 1559 1549 1543 1545 1541 1548 1547 1547 1546 1545 1549
1574 1574 1573 1572 1570 1569 1567 1565 1563 1561 1559 1557 1555 1555 1553 1551 1552 1551 1555 1558 1561 1561 1562 1561 1560 1559 1558 1558 1558 1555 1554 1553 1556 1557 1556 1558 1559 1562 1544 1543 1541 1543 1545 1544 1552 1544 1544
1570 1570 1570 1569 1568 1567 1566 1564 1562 1561 1560 1558 1557 1555 1553 1552 1553 1555 1559 1560 1560 1560 1560 1561 1560 1561 1561 1560 1562 1553 1553 1555 1556 1557 1556 1558 1559 1565 1542 1547 1546 1546 1543 1545 1545 1545 1549
1565 1566 1566 1565 1565 1564 1564 1562 1561 1560 1559 1559 1558 1556 1554 1553 1553 1554 1556 1556 1558 1560 1560 1560 1560 1560 1560 1559 1556 1555 1553 1554 1556 1558 1557 1558 1556 1555 1555 1543 1545 1546 1539 1541 1541 1548 1537
1559 1561 1561 1561 1561 1560 1561 1560 1560 1559 1559 1559 1558 1555 1555 1553 1555 1555 1557 1556 1556 1558 1560 1560 1559 1559 1558 1558 1553 1553 1549 1551 1551 1552 1555 1557 1555 1550 1544 1541 1542 1539 1534 1531 1535 1527 1533
1554 1555 1556 1556 1556 1556 1557 1558 1557 1557 1557 1557 1557 1557 1556 1555 1555 1555 1556 1555 1554 1554 1556 1557 1558 1554 1555 1556 1553 1553 1550 1551 1551 1553 1553 1554 1554 1552 1551 1541 1536 1533 1522 1517 1518 1517 1516
1550 1551 1551 1550 1550 1551 1552 1554 1555 1555 1556 1554 1553 1554 1554 1552 1552 1553 1550 1548 1551 1552 1551 1551 1553 1554 1553 1552 1550 1549 1548 1547 1546 1548 1550 1555 1556 1555 1537 1536 1539 1533 1508 1505 1506 1503 1504
1546 1546 1546 1545 1545 1547 1548 1549 1551 1552 1552 1553 1552 1552 1553 1548 1548 1547 1545 1546 1546 1548 1549 1549 1550 1551 1549 1549 1547 1544 1541 1537 1539 1539 1542 1549 1553 1556 1549 1543 1537 1507 1501 1500 1501 1501 1501
1540 1540 1540 1541 1540 1541 1543 1545 1547 1548 1548 1549 1551 1551 1551 1546 1543 1542 1542 1543 1545 1547 1548 1548 1547 1548 1547 1549 1548 1541 1534 1532 1532 1536 1537 1538 1548 1551 1545 1536 1514 1502 1503 1503 1504 1506 1505
1535 1534 1534 1534 1536 1536 1538 1541 1542 1542 1544 1546 1547 1548 1549 1546 1540 1540 1539 1541 1543 1543 1543 1542 1543 1544 1547 1547 1547 1548 1543 1529 1531 1541 1541 1541 1542 1549 1542 1536 1521 1505 1505 1505 1504 1509 1509
1528 1528 1528 1528 1530 1532 1533 1536 1537 1537 1539 1540 1542 1545 1545 1543 1538 1539 1538 1537 1538 1538 1538 1538 1541 1542 1545 1546 1548 1546 1539 1527 1531 1526 1545 1542 1542 1540 1537 1530 1517 1507 1504 1503 1506 1509 1509
1520 1521 1523 1523 1524 1527 1527 1529 1533 1533 1535 1534 1535 1539 1540 1537 1535 1536 1535 1535 1535 1534 1534 1537 1539 1539 1543 1545 1544 1537 1533 1528 1527 1516 1521 1529 1533 1533 1529 1524 1513 1505 1504 1506 1509 1508 1507
1512 1513 1515 1517 1518 1521 1521 1522 1526 1528 1531 1530 1529 1532 1534 1534 1529 1529 1529 1530 1530 1530 1533 1530 1527 1527 1529 1534 1534 1534 1531 1530 1524 1517 1509 1514 1512 1511 1514 1503 1502 1505 1502 1504 1505 1504 1505